Lampedusa, Italy

2:24 PM CEST on July 23, 2017 (GMT +0200)
Lampedusa

Weather History for LICD - October, 2012

Change the Weather History Date:

Sunday, October 21, 2012

  Actual Average Record
Temperature  
Mean Temperature 76 °F -  
Max Temperature 78 °F 70 °F 82 °F (1999)
Min Temperature 75 °F 64 °F 57 °F (2007)
Cooling Degree Days 12    
Growing Degree Days 26 (Base 50)    
Moisture  
Dew Point 69 °F    
Average Humidity 78    
Maximum Humidity 89    
Minimum Humidity 74    
Precipitation  
Precipitation 0.00 in 0.08 in - ()
Sea Level Pressure  
Sea Level Pressure 30.03 in    
Wind  
Wind Speed 12 mph ()    
Max Wind Speed 16 mph    
Max Gust Speed -    
Visibility 6.2 miles    
Events      
Averages and records for this station are not official NWS values.
T = Trace of Precipitation, MM = Missing Value Source: Averaged Metar Reports

Daily Weather History Graph

Daily Weather History Graph

Search for Another Location

Airport or City:

Trip Planner

Search our weather history database for the weather conditions in past years. The results will help you decide how hot, cold, wet, or windy it might be!

Date:

Astronomy

Oct. 21, 2012 Rise Set
Actual Time 7:21 AM CEST 6:26 PM CEST
Civil Twilight 6:55 AM CEST 6:52 PM CEST
Nautical Twilight 6:25 AM CEST 7:21 PM CEST
Astronomical Twilight 5:56 AM CEST 7:51 PM CEST
Moon 1:25 PM CEST (10/21) No Moon Set
Length of Visible Light 11h 56m
Length of Day
11h 05m
Waxing Crescent, 42% of the Moon is Illuminated
Oct 21
Waxing Crescent
Oct 22
First Quarter
Oct 29
Full
Nov 7
Last Quarter
Nov 13
New

Hourly Weather History & Observations

Time (CEST) Temp. Dew Point Humidity Pressure Visibility Wind Dir Wind Speed Gust Speed Precip Events Conditions
6:00 AM 75.2 °F 69.8 °F 83% 30.01 in 6.2 mi ESE 16.1 mph - N/A   Partly Cloudy
6:23 AM 75.2 °F 71.6 °F 89% 30.01 in 6.2 mi ESE 15.0 mph - N/A   Partly Cloudy
6:50 AM 75.2 °F 69.8 °F 83% 30.01 in 6.2 mi ESE 16.1 mph - N/A   Partly Cloudy
7:50 AM 75.2 °F 69.8 °F 83% 30.04 in 6.2 mi ESE 15.0 mph - N/A   Partly Cloudy
8:50 AM 75.2 °F 69.8 °F 83% 30.04 in 6.2 mi ESE 16.1 mph - N/A   Partly Cloudy
9:50 AM 77.0 °F 69.8 °F 78% 30.04 in 6.2 mi ESE 13.8 mph - N/A   Partly Cloudy
10:50 AM 77.0 °F 69.8 °F 78% 30.06 in - ESE 12.7 mph - N/A   Clear
11:50 AM 77.0 °F 69.8 °F 78% 30.06 in - ESE 13.8 mph - N/A   Clear
12:50 PM 78.8 °F 69.8 °F 74% 30.04 in - SE 12.7 mph - N/A   Clear
1:50 PM 78.8 °F 69.8 °F 74% 30.04 in - SE 11.5 mph - N/A   Clear
2:50 PM 78.8 °F 69.8 °F 74% 30.04 in - ESE 9.2 mph - N/A   Clear
3:50 PM 78.8 °F 69.8 °F 74% 30.04 in - ESE 10.4 mph - N/A   Clear
4:50 PM 77.0 °F 68.0 °F 74% 30.01 in - ESE 9.2 mph - N/A   Clear
5:50 PM 77.0 °F 68.0 °F 74% 30.01 in - ESE 9.2 mph - N/A   Clear
6:50 PM 75.2 °F 68.0 °F 78% 30.04 in - ESE 10.4 mph - N/A   Clear
7:50 PM 75.2 °F 68.0 °F 78% 30.04 in - ESE 10.4 mph - N/A   Clear
8:50 PM 75.2 °F 68.0 °F 78% 30.04 in - ESE 10.4 mph - N/A   Clear
9:50 PM 75.2 °F 68.0 °F 78% 30.04 in - ESE 10.4 mph - N/A   Clear
10:50 PM 75.2 °F 68.0 °F 78% 30.04 in - ESE 12.7 mph - N/A   Clear